TimeCDT,TemperatureF,Dew PointF,Humidity,Sea Level PressureIn,VisibilityMPH,Wind Direction,Wind SpeedMPH,Gust SpeedMPH,PrecipitationIn,Events,Conditions,WindDirDegrees,DateUTC
12:53 AM,30.9,19.0,61,30.18,10.0,SE,8.1,-,N/A,,Clear,140,2011-11-04 05:53:00
1:53 AM,30.0,18.0,61,30.18,10.0,SE,6.9,-,N/A,,Clear,140,2011-11-04 06:53:00
2:53 AM,26.6,17.6,69,30.13,10.0,SSE,9.2,-,N/A,,Clear,150,2011-11-04 07:53:00
3:53 AM,28.0,18.0,66,30.17,10.0,SSE,8.1,-,N/A,,Clear,150,2011-11-04 08:53:00
4:53 AM,26.1,18.0,71,30.17,10.0,SSE,9.2,-,N/A,,Clear,160,2011-11-04 09:53:00
5:53 AM,28.0,19.0,69,30.16,10.0,SSE,9.2,-,N/A,,Clear,150,2011-11-04 10:53:00
6:53 AM,28.0,19.0,69,30.15,10.0,SSE,9.2,-,N/A,,Clear,150,2011-11-04 11:53:00
7:53 AM,28.9,19.0,67,30.13,10.0,SE,12.7,-,N/A,,Clear,140,2011-11-04 12:53:00
8:53 AM,32.0,19.9,61,30.14,10.0,South,11.5,-,N/A,,Clear,170,2011-11-04 13:53:00
9:53 AM,36.0,21.0,55,30.12,10.0,SSE,13.8,-,N/A,,Clear,160,2011-11-04 14:53:00
10:53 AM,43.0,21.9,43,30.11,10.0,South,15.0,20.7,N/A,,Clear,180,2011-11-04 15:53:00
11:53 AM,48.0,18.0,30,30.10,10.0,South,24.2,32.2,N/A,,Clear,180,2011-11-04 16:53:00
12:53 PM,51.1,19.0,28,30.07,10.0,South,19.6,28.8,N/A,,Clear,170,2011-11-04 17:53:00
1:53 PM,53.1,16.0,23,30.04,10.0,South,23.0,35.7,N/A,,Clear,180,2011-11-04 18:53:00
2:53 PM,53.1,17.1,24,30.01,10.0,South,19.6,28.8,N/A,,Clear,170,2011-11-04 19:53:00
3:53 PM,53.1,17.1,24,29.99,10.0,South,25.3,34.5,N/A,,Clear,170,2011-11-04 20:53:00
4:53 PM,52.0,16.0,24,29.99,10.0,South,23.0,31.1,N/A,,Clear,170,2011-11-04 21:53:00
5:53 PM,48.9,19.9,32,29.97,10.0,South,20.7,29.9,N/A,,Clear,170,2011-11-04 22:53:00
6:53 PM,46.0,19.9,35,29.97,10.0,SSE,18.4,28.8,N/A,,Clear,160,2011-11-04 23:53:00
7:53 PM,44.1,19.9,38,29.96,10.0,SSE,16.1,-,N/A,,Clear,160,2011-11-05 00:53:00
8:53 PM,43.0,19.9,40,29.95,10.0,SSE,16.1,23.0,N/A,,Clear,160,2011-11-05 01:53:00
9:53 PM,43.0,19.9,40,29.94,10.0,SSE,19.6,-,N/A,,Clear,160,2011-11-05 02:53:00
10:53 PM,42.1,23.0,47,29.95,10.0,South,20.7,27.6,N/A,,Clear,170,2011-11-05 03:53:00
11:53 PM,41.0,26.1,55,29.92,10.0,South,20.7,27.6,N/A,,Clear,170,2011-11-05 04:53:00